Showing default

COSMOS 1693, 16141

Orbit data source: Space-Track

COSMOS 1693, 16141 is a payload satellite owned by GUKOS (CIS) in LEO that was launched on Wed, 09 Oct 1985 UTC via a TSIKLON-3 launch vehicle from the Plesetsk Missile And Space Complex (PKMTR). Payload-class satellites include a variety of spacecraft equipped with specific instruments for various scientific and technological missions. These include communications satellites like Starlink; space stations such as the ISS; scientific satellites like the Hubble; Earth observation satellites from companies like Planet Labs, Umbra, and HawkEye 360; GPS; miniature CubeSats for education and research; and military/defense satellites.

Loading next visibility...
Identifier
16141, 1985-094D
Orbit
LEO
Country
Flag of CISCIS
Related business
Manufacturer
NPO PM
Mission
Defense Communications
Bus & Motor
STRELA-3, Unknown motor
Mass
225 kg wet, 225 kg dry
Launch date (UTC)
1985-10-09 (40 years ago)
Launch vehicle
TSIKLON-3
Launch site
Plesetsk Missile And Space Complex (PKMTR)
Object type
Payload
Rocket body
Debris
Shape & HBR
Cyl, 0.8 m
Radar Cross Section
1.257 m², Medium (>0.1 m² and < 1m²)

Expand to show TLE details & history
Last TLE update: 11 hours ago

TLE from 11 hours ago
0 COSMOS 1693
1 16141U 85094D   25242.79766296  .00000004  00000-0 -34209-4 0  9993
2 16141  82.6055  77.6467 0014466 340.3407  30.5246 12.64357670840845
Epoch: 2025-08-30T19:08Z
TLE epoch observation values (Epoch: 2025-08-30T19:08:38.079Z)
Latitude
10.81077°
Longitude
172.67426°
Altitude
1,397.3 km
Speed
7.166 km/s
True Right ascension
05h 16m 14s
True Declination
10° 45' 10"
Sunlit
Object was in daylight at epoch
Visualization orbit readout
Latitude
Unknown
Longitude
Unknown
Altitude
Unknown
Speed
Unknown
Apparent Right ascension
Unknown
Apparent Declination
Unknown
Sunlit
N/A
Visualization observer readout
Local Sidereal Time
22:11:13
Azimuth
Unknown
Elevation
Unknown
Doppler factor
Unknown
Orbital elements
Apogee altitude
1,413.582 km
Perigee altitude
1,391.071 km
Semi-major axis
7,780.463 km
Eccentricity
0.00145
Inclination
82.6055°
RAAN
77.6467°
Arg. of periapsis
340.3407°
True anomaly
30.60893°
Mean anomaly
30.5246°
Eccentric anomaly
30.56675°
Mean motion
3.16253 °/min
Orbital period
113.83 mins
BSTAR
-0.000034209
Loading maneuver chart data...
Computing Atmospheric mass density...
Loading historical data...
Loading historical data...
Loading historical data...
Loading historical data...
Loading historical data...
Loading historical data...
Loading historical data...

Documentation

Showing up to 5 results
|